Location: Unspecified
(0.0000°N, 0.0000°E)
Time: 13:45:41
(UTC+00:00)

Tiros 1 despin weight - Pass Details

Date: 24 November 2019
Orbit: 594 x 642 km, 48.2° (Epoch: 08 December)

Event Time Altitude Azimuth Distance (km) Brightness Sun altitude
Rises 08:41:18 0° 236° (SW) 2,869 ? 40.3°
Reaches altitude 10° 08:43:49 10° 246° (WSW) 1,954 ? 40.9°
Maximum altitude 08:47:48 32° 309° (NW) 1,041 ? 41.7°
Drops below altitude 10° 08:51:45 10° 12° (NNE) 1,924 ? 42.6°
Sets 08:54:12 0° 23° (NNE) 2,818 ? 43.2°
